Location: Macksville High School
(37.9611°N, 99.9654°W)
Time: 13:24:27
(UTC+00:00)

Cosmos 2233 Rocket - Pass Details

Date: 27 February 2020
Orbit: 954 x 989 km, 82.9° (Epoch: 29 March)

Event Time Altitude Azimuth Distance (km) Brightness Sun altitude
Rises 12:03:40 0° 352° (N) 3,696 7.0 -14.8°
Reaches altitude 10° 12:06:11 10° 353° (N) 2,748 6.3 -14.3°
Maximum altitude 12:12:30 88° 269° (W) 994 4.0 -13.1°
Drops below altitude 10° 12:18:49 10° 176° (S) 2,740 6.4 -11.8°
Sets 12:21:20 0° 176° (S) 3,685 7.1 -11.3°
